Regional Weather Roundup
Issued by NWS Upton, NY

Current Version | Previous Version | Text Only | Print | Product List | Glossary On
Versions: 1 2 3 4 5 6 7 8 9 10 11 12 13 14 15 16 17 18 19 20 21 22 23 24 25 26 27
000
ASUS41 KOKX 201108
RWROKX

REGIONAL WEATHER ROUNDUP
NATIONAL WEATHER SERVICE NEW YORK NY
700 AM EDT FRI OCT 20 2017

NOTE: "FAIR" INDICATES FEW OR NO CLOUDS BELOW 12,000 FEET WITH NO
SIGNIFICANT WEATHER AND/OR OBSTRUCTIONS TO VISIBILITY.

NYZ071-072-176-178-NJZ106-104-201200-
NEW YORK CITY METRO AREA

CITY           SKY/WX    TMP DP  RH WIND       PRES   REMARKS
Central Park   FAIR      58  46  64 VRB3      30.15R
Bronx Bot Gard   N/A     59  45  58 W3        30.13R
LaGuardia APRT FAIR      62  46  55 W7        30.12R
Kennedy INTL   FAIR      58  48  69 W13       30.13R
Breezy Point     N/A     59 N/A N/A W8          N/A
Newark/Liberty FAIR      56  47  71 W7        30.13R
Teterboro      FAIR      48  44  86 SW3       30.11R
$$

NYZ177-179-078>081-201200-
LONG ISLAND NEW YORK

CITY           SKY/WX    TMP DP  RH WIND       PRES   REMARKS
Jones Beach      N/A     59 N/A N/A W10         N/A
Matinecock PT    N/A     61 N/A N/A W18         N/A
Farmingdale    FAIR      54  47  77 NW3       30.11R
MacArthur/ISP  FAIR      54  48  80 W6        30.09R
Shirley        FAIR      54  49  83 NW6       30.09R
Mt Sinai Harb    N/A    N/A N/A N/A NW8         N/A
Westhampton    FAIR      51  45  79 CALM      30.10R
East Hampton   FAIR      57  51  79 CALM      30.07R
Montauk          N/A     61  51  70 NW7       30.08R
$$

NYZ052-065-067-201200-
HUDSON VALLEY

CITY           SKY/WX    TMP DP  RH WIND       PRES   REMARKS
White Plains   FAIR      51  45  79 SW3       30.10R
Larchmont Harb   N/A     59 N/A N/A W12         N/A
Croton On Huds   N/A     59 N/A N/A N1          N/A
Newburgh       CLEAR     54  45  71 NW7       30.13R
Montgomery     FAIR      49  44  83 W9        30.12R
Poughkeepsie   FAIR      42  39  89 CALM      30.10R
Albany         FAIR      51  42  71 W6        30.11R
$$

NJZ001-105-106-008-010-013-015-019>022-104-201200-
NEW JERSEY

CITY           SKY/WX    TMP DP  RH WIND       PRES   REMARKS
Newark/Liberty FAIR      56  47  71 W7        30.13R
Teterboro      FAIR      48  44  86 SW3       30.11R
Caldwell       FAIR      49  47  93 CALM      30.14R
Somerville     FAIR      40  40 100 CALM      30.14R
Linden         FAIR      55  46  70 NW10      30.13R
Perth Amboy      N/A     54 N/A N/A W6          N/A
Sussex         FAIR      41  40  96 CALM      30.15R FOG
Andover          N/A     43  42  97 CALM      30.15R
Trenton        FAIR      51  47  86 NW3       30.15R
Millville      FAIR      50  49  96 W8        30.16R
Atlantic City  FAIR      52  49  89 NW6       30.15R
Wrightstown    FAIR      54  47  77 NW7       30.13R
Toms River       N/A     53  48  83 NW8       30.15R
Belmar         FAIR      52  47  83 W7        30.15R
$$

PAZ047>061-062-071-201200-
EASTERN PENNSYLVANIA

CITY           SKY/WX    TMP DP  RH WIND       PRES   REMARKS
Philadelphia   FAIR      59  46  62 NW8       30.17R
Allentown      FAIR      48  43  82 SW6       30.16R
Scranton       FAIR      52  44  74 CALM      30.17R
$$

CTZ002-004>006-009-010-012-RIZ004-006-007-MAZ004-011-015-201200-
SOUTHERN NEW ENGLAND
 IN CT

CITY           SKY/WX    TMP DP  RH WIND       PRES   REMARKS
Bradley INTL   FAIR      54  41  61 W6        30.07R
Hartford       FAIR      48  46  93 VRB3      30.07S
Danbury        FAIR      45  43  93 SW3       30.12R
Wtrbury/Oxford FAIR      44  42  93 CALM      30.11R
Norwalk Harbor   N/A     55 N/A N/A W9          N/A
Bridgeport     FAIR      53  46  77 NW7       30.09R
Meriden        FAIR      43  41  93 CALM      30.09R
New Haven      FAIR      56  46  69 NW12      30.08S
Chester        FAIR      54  46  76 W6        30.08R
Groton         FAIR      53  46  77 NW6       30.06R
Wilimantic     FAIR      46  44  93 CALM      30.06S

 IN RI

CITY           SKY/WX    TMP DP  RH WIND       PRES   REMARKS
Providence     MOCLDY    55  46  71 W8        30.04S
Block Island   FAIR      59  48  67 NW12      30.05S
Westerly       FAIR      58  45  62 NW5       30.06R
 IN MA

CITY           SKY/WX    TMP DP  RH WIND       PRES   REMARKS
Boston         FAIR      60  46  59 W12       30.00R
Worcester      FAIR      51  42  71 W10       30.03R
Westfield      FAIR      49  43  80 VRB3      30.06R
Provincetown   FAIR      57  51  80 W13       30.00R
Nantucket      FAIR      59  56  89 W9        30.01R
$$

ANZ330-335-338-340-345-350-353-355-201200-
COASTAL MARINE OBSERVATIONS


STATION/POSITION TIME  SKY/WX   TEMP    WIND        PRES    VSBY  WAVE
                                AIR SEA DIR/SP/G                  HT/PER
                 (UTC)          (F)     (DEG/KT/KT) (MB)    (MI)  (FT/S)
NY HARB ENTRANCE 1050            63 65  300/ 16/ 17 1018.9          3/10
20 S FIRE ISLAND 1050            64 64  300/ 16/ 19 1018.8          4/ 5
GREAT SOUTH BAY  1030            60 61  300/ 10/ 12   N/A
15 E BARNEGAT LI NOT AVBL
HUDSON CANYON    0950            65 65  280/ 14/ 17 1018.3          4/ 5
KINGS POINT      1036            62 65  330/  9/ 10 1020.3
EXECUTION ROCKS  1045            62     250/ 12/ 16   N/A
WESTERN LI SOUND 0949            62     270/ 14/ 16   N/A           1
CENTRAL LI SOUND NOT AVBL
EASTERN LI SOUND NOT AVBL
ROBBINS REEF     1042            59     260/  6/  7 1020.7
$$


>>>>>>>>>>>>>>>>>>>>>>>>>>>> KEY <<<<<<<<<<<<<<<<<<<<<<<<<<<
>                                                          <
>     SKY/WX - Sky Condition/Present Weather               <
>     TMP    - Temperature in Fahrenheit                   <
>     DP     - Dew Point in Fahrenheit                     <
>     RH     - Relative Humidity in Percent                <
>     WIND   - Direction (from) and Speed in MPH           <
>     PRES   - Mean Sea Level Pressure (inches of Hg)      <
>     WCI    - Wind Chill Index                            <
>     VSB    - VISIBILITY IN MILES                         <
>     HX     - HEAT INDEX                                  <
>     TC     - TEMPERATURE IN CELSIUS                      <
>     VRB    - VARIABLE WIND DIRECTION                     <
>                                                          <
>>>>>>>>>>>>>>>>>>>>>>>>>>>> KEY <<<<<<<<<<<<<<<<<<<<<<<<<<<




USA.gov is the U.S. government's official web portal to all federal, state and local government web resources and services.